International Skating Union - Official Site

ESSENT ISU EUROPEAN SPEED SKATING CHAMPIONSHIPS 2011
January 7-9, 2011

Draw | Lap Times | Index | Classification

Referee: Daniel  CABELDUC  (SWE)
Starter: Jannie  SMEGEN  (NED)
StartTime: EndTime: Air Temp: Ice Temp: Humidity:
15:25 4℃ -4℃ 69%
Result 5000m Ladies
Rankings as of Jan 9 2011 4:37PM
Rank: No.: Name: Nation: Time: Behind: Points:
1 5 Martina  SÁBLIKOVÁ CZE CZE 7:07.78200m - 20.69 - (20.6)
600m - 53.32 - (32.6)
1000m - 1:26.36 - (33.0)
1400m - 2:00.22 - (33.8)
1800m - 2:34.23 - (34.0)
2200m - 3:08.14 - (33.9)
2600m - 3:42.17 - (34.0)
3000m - 4:16.32 - (34.1)
3400m - 4:50.39 - (34.0)
3800m - 5:24.83 - (34.4)
4200m - 5:58.76 - (33.9)
4600m - 6:33.20 - (34.4)
5000m - 7:07.78 - (34.5)
42.778
2 16 Ireen  WÜST NED NED 7:18.70200m - 20.50 - (20.5)
600m - 52.32 - (31.8)
1000m - 1:25.84 - (33.5)
1400m - 1:59.98 - (34.1)
1800m - 2:34.43 - (34.4)
2200m - 3:08.21 - (33.7)
2600m - 3:42.93 - (34.7)
3000m - 4:17.63 - (34.7)
3400m - 4:52.66 - (35.0)
3800m - 5:28.72 - (36.0)
4200m - 6:05.20 - (36.4)
4600m - 6:42.03 - (36.8)
5000m - 7:18.70 - (36.6)
10.92 43.870
3 14 Diane  VALKENBURG NED NED 7:24.69200m - 20.95 - (20.9)
600m - 54.84 - (33.8)
1000m - 1:29.39 - (34.5)
1400m - 2:03.95 - (34.5)
1800m - 2:39.25 - (35.3)
2200m - 3:14.00 - (34.7)
2600m - 3:49.06 - (35.0)
3000m - 4:24.51 - (35.4)
3400m - 5:00.02 - (35.5)
3800m - 5:35.38 - (35.3)
4200m - 6:11.07 - (35.6)
4600m - 6:47.37 - (36.3)
5000m - 7:24.69 - (37.3)
16.91 44.469
4 19 Mari  HEMMER NOR NOR 7:26.62200m - 21.39 - (21.3)
600m - 54.78 - (33.3)
1000m - 1:29.18 - (34.4)
1400m - 2:04.29 - (35.1)
1800m - 2:39.23 - (34.9)
2200m - 3:14.77 - (35.5)
2600m - 3:50.46 - (35.6)
3000m - 4:26.41 - (35.9)
3400m - 5:02.26 - (35.8)
3800m - 5:38.44 - (36.1)
4200m - 6:14.80 - (36.3)
4600m - 6:51.15 - (36.3)
5000m - 7:26.62 - (35.4)
18.84 44.662
5 1 Anna  ROKITA AUT AUT 7:27.40200m - 21.38 - (21.3)
600m - 54.96 - (33.5)
1000m - 1:29.60 - (34.6)
1400m - 2:04.92 - (35.3)
1800m - 2:40.38 - (35.4)
2200m - 3:16.33 - (35.9)
2600m - 3:52.46 - (36.1)
3000m - 4:28.53 - (36.0)
3400m - 5:04.45 - (35.9)
3800m - 5:40.69 - (36.2)
4200m - 6:16.95 - (36.2)
4600m - 6:52.65 - (35.7)
5000m - 7:27.40 - (34.7)
19.62 44.740
6 13 Marrit  LEENSTRA NED NED 7:28.06200m - 20.24 - (20.2)
600m - 53.68 - (33.4)
1000m - 1:28.38 - (34.7)
1400m - 2:03.86 - (35.4)
1800m - 2:39.17 - (35.3)
2200m - 3:14.69 - (35.5)
2600m - 3:50.19 - (35.5)
3000m - 4:25.95 - (35.7)
3400m - 5:01.48 - (35.5)
3800m - 5:37.16 - (35.6)
4200m - 6:13.50 - (36.3)
4600m - 6:50.33 - (36.8)
5000m - 7:28.06 - (37.7)
20.28 44.806
7 15 Jorien  VOORHUIS NED NED 7:28.48200m - 20.99 - (20.9)
600m - 54.97 - (33.9)
1000m - 1:30.17 - (35.2)
1400m - 2:06.01 - (35.8)
1800m - 2:41.81 - (35.8)
2200m - 3:17.74 - (35.9)
2600m - 3:53.61 - (35.8)
3000m - 4:28.94 - (35.3)
3400m - 5:04.56 - (35.6)
3800m - 5:40.36 - (35.8)
4200m - 6:16.21 - (35.8)
4600m - 6:52.18 - (35.9)
5000m - 7:28.48 - (36.3)
20.70 44.848
8 24 Luiza  ZLOTKOWSKA POL POL 7:31.49200m - 21.57 - (21.5)
600m - 56.00 - (34.4)
1000m - 1:31.68 - (35.6)
1400m - 2:07.26 - (35.5)
1800m - 2:43.08 - (35.8)
2200m - 3:18.47 - (35.3)
2600m - 3:53.66 - (35.1)
3000m - 4:29.28 - (35.6)
3400m - 5:05.87 - (36.5)
3800m - 5:42.46 - (36.5)
4200m - 6:19.10 - (36.6)
4600m - 6:55.56 - (36.4)
5000m - 7:31.49 - (35.9)
23.71 45.149
9 20 Ida  NJÅTUN NOR NOR 7:35.37200m - 20.72 - (20.7)
600m - 55.20 - (34.4)
1000m - 1:30.78 - (35.5)
1400m - 2:06.46 - (35.6)
1800m - 2:42.18 - (35.7)
2200m - 3:17.62 - (35.4)
2600m - 3:53.11 - (35.4)
3000m - 4:29.22 - (36.1)
3400m - 5:05.89 - (36.6)
3800m - 5:43.12 - (37.2)
4200m - 6:20.41 - (37.2)
4600m - 6:58.02 - (37.6)
5000m - 7:35.37 - (37.3)
27.59 45.537
10 26 Yekaterina  LOBYSHEVA RUS RUS 7:36.44200m - 21.17 - (21.1)
600m - 55.38 - (34.2)
1000m - 1:30.77 - (35.3)
1400m - 2:06.50 - (35.7)
1800m - 2:42.35 - (35.8)
2200m - 3:18.31 - (35.9)
2600m - 3:54.27 - (35.9)
3000m - 4:29.99 - (35.7)
3400m - 5:06.07 - (36.0)
3800m - 5:42.62 - (36.5)
4200m - 6:19.60 - (36.9)
4600m - 6:57.49 - (37.8)
5000m - 7:36.44 - (38.9)
28.66 45.644
11 28 Yuliya  SKOKOVA RUS RUS 7:53.77200m - 21.50 - (21.5)
600m - 56.82 - (35.3)
1000m - 1:32.79 - (35.9)
1400m - 2:09.37 - (36.5)
1800m - 2:46.29 - (36.9)
2200m - 3:24.04 - (37.7)
2600m - 4:01.81 - (37.7)
3000m - 4:39.40 - (37.5)
3400m - 5:17.29 - (37.8)
3800m - 5:55.69 - (38.4)
4200m - 6:34.32 - (38.6)
4600m - 7:13.79 - (39.4)
5000m - 7:53.77 - (39.9)
45.99 47.377
12 3 Karolina  ERBANOVÁ CZE CZE 7:56.37200m - 20.82 - (20.8)
600m - 56.32 - (35.5)
1000m - 1:32.48 - (36.1)
1400m - 2:09.16 - (36.6)
1800m - 2:46.61 - (37.4)
2200m - 3:24.17 - (37.5)
2600m - 4:02.24 - (38.0)
3000m - 4:40.77 - (38.5)
3400m - 5:19.20 - (38.4)
3800m - 5:58.76 - (39.5)
4200m - 6:38.69 - (39.9)
4600m - 7:18.04 - (39.3)
5000m - 7:56.37 - (38.3)
48.59 47.637